Location: Elstree
(51.6403°N, 0.2969°W)
Time: 04:04:28
(UTC+00:00)

MOS 1 - Visible Passes

Search period start: 14 June 2021 00:00
Search period end: 24 June 2021 00:00
Orbit: 879 x 890 km, 99.1° (Epoch: 13 June)

Date Brightness Start Highest point End Pass type
(mag) Time Alt. Az. Time Alt. Az. Time Alt. Az.
14 Jun 6.3 21:20:55 10° SW 21:25:28 24° W 21:30:02 10° NW visible
15 Jun 6.3 21:18:59 10° SW 21:23:35 25° W 21:28:14 10° NW visible
16 Jun 6.2 21:17:03 10° SSW 21:21:44 26° W 21:26:26 10° NW visible
17 Jun 6.2 21:15:08 10° SSW 21:19:51 26° W 21:24:38 10° NW visible
18 Jun 6.2 21:13:13 10° SSW 21:18:00 27° W 21:22:49 10° NW visible
19 Jun 6.1 21:11:18 10° SSW 21:16:08 28° W 21:21:01 10° NW visible
20 Jun 6.1 21:09:24 10° SSW 21:14:17 29° W 21:19:12 10° NW visible
21 Jun 6.0 21:07:28 10° SSW 21:12:25 30° W 21:17:24 10° NNW visible
22 Jun 6.0 21:05:34 10° SSW 21:10:34 31° W 21:15:35 10° NNW visible
23 Jun 5.9 21:03:40 10° SSW 21:08:42 32° W 21:13:46 10° NNW visible
